When you browse on this site, cookies collect data to enhance your experience and personalize the content and advertising you see.
Visit our Privacy Policy to learn more. By continuing to use the site, you agree to this use of cookies and data.
  • In Österreich
  • Länderverzeichnis
  • Für 7 Tage
  • Wassertemperatur
  • Wetterkarte
  • News
  • Widgets
  • user-avatar
    Anmelden

    Stündliche Wetter Kremnoe

    Heute, 25 August, Sonntag

    Zeit Temperatur Niederschläge Wind Luftdruck Luftfeuchtigkeit
    00:00 +15°C° 0 mm 1 m/S 758 mmHg 80%
    01:00 +14°C° 0 mm 1 m/S 758 mmHg 82%
    02:00 +14°C° 0 mm 1 m/S 759 mmHg 85%
    03:00 +14°C° 0 mm 1 m/S 759 mmHg 86%
    04:00 +14°C° 0 mm 1 m/S 759 mmHg 87%
    05:00 +14°C° 0 mm 1 m/S 759 mmHg 88%
    06:00 +15°C° 0 mm 1 m/S 759 mmHg 81%
    07:00 +18°C° 0 mm 1 m/S 759 mmHg 74%
    08:00 +20°C° 0 mm 1 m/S 759 mmHg 68%
    09:00 +22°C° 0 mm 1 m/S 759 mmHg 62%
    10:00 +24°C° 0 mm 1 m/S 759 mmHg 56%
    11:00 +26°C° 0 mm 1 m/S 759 mmHg 50%
    12:00 +26°C° 0 mm 1 m/S 759 mmHg 47%
    13:00 +27°C° 0 mm 1 m/S 759 mmHg 44%
    14:00 +28°C° 0 mm 1 m/S 759 mmHg 42%
    15:00 +27°C° 0 mm 2 m/S 759 mmHg 45%
    16:00 +27°C° 0 mm 2 m/S 758 mmHg 49%
    17:00 +27°C° 0 mm 2 m/S 758 mmHg 52%
    18:00 +25°C° 0 mm 2 m/S 758 mmHg 59%
    19:00 +23°C° 0 mm 2 m/S 758 mmHg 66%
    20:00 +20°C° 0 mm 2 m/S 759 mmHg 73%
    21:00 +19°C° 0 mm 2 m/S 759 mmHg 77%
    22:00 +18°C° 0 mm 2 m/S 759 mmHg 82%
    23:00 +18°C° 0 mm 2 m/S 759 mmHg 86%

    Morgen, 26 August, Montag

    Zeit Temperatur Niederschläge Wind Luftdruck Luftfeuchtigkeit
    00:00 +17°C° 0 mm 2 m/S 759 mmHg 88%
    01:00 +17°C° 0 mm 2 m/S 759 mmHg 89%
    02:00 +16°C° 0 mm 2 m/S 759 mmHg 91%
    03:00 +16°C° 0 mm 2 m/S 759 mmHg 92%
    04:00 +16°C° 0 mm 2 m/S 759 mmHg 93%
    05:00 +16°C° 0 mm 2 m/S 759 mmHg 94%
    06:00 +17°C° 0 mm 2 m/S 759 mmHg 88%
    07:00 +19°C° 0 mm 2 m/S 759 mmHg 82%
    08:00 +20°C° 0 mm 2 m/S 759 mmHg 76%
    09:00 +23°C° 0 mm 2 m/S 759 mmHg 70%
    10:00 +25°C° 0 mm 2 m/S 759 mmHg 63%
    11:00 +26°C° 0 mm 2 m/S 759 mmHg 56%
    12:00 +27°C° 0 mm 2 m/S 759 mmHg 54%
    13:00 +27°C° 0 mm 2 m/S 759 mmHg 52%
    14:00 +28°C° 0 mm 2 m/S 758 mmHg 50%
    15:00 +28°C° 0 mm 1 m/S 758 mmHg 52%
    16:00 +27°C° 0 mm 1 m/S 758 mmHg 54%
    17:00 +27°C° 0 mm 1 m/S 757 mmHg 56%
    18:00 +25°C° 0 mm 1 m/S 757 mmHg 62%
    19:00 +23°C° 0 mm 1 m/S 757 mmHg 69%
    20:00 +21°C° 0 mm 1 m/S 757 mmHg 75%
    21:00 +20°C° 0 mm 1 m/S 757 mmHg 77%
    22:00 +20°C° 0 mm 1 m/S 758 mmHg 80%
    23:00 +19°C° 0 mm 1 m/S 758 mmHg 82%

    übermorgen, 27 August, Dienstag

    Zeit Temperatur Niederschläge Wind Luftdruck Luftfeuchtigkeit
    00:00 +19°C° 0 mm 1 m/S 758 mmHg 84%
    01:00 +18°C° 0 mm 1 m/S 758 mmHg 85%
    02:00 +18°C° 0 mm 1 m/S 758 mmHg 87%
    03:00 +16°C° 0 mm 1 m/S 757 mmHg 87%
    04:00 +16°C° 0 mm 1 m/S 757 mmHg 88%
    05:00 +16°C° 0 mm 1 m/S 757 mmHg 89%
    06:00 +19°C° 0 mm 1 m/S 758 mmHg 82%
    07:00 +20°C° 0 mm 1 m/S 758 mmHg 75%
    08:00 +22°C° 0 mm 1 m/S 758 mmHg 69%
    09:00 +24°C° 0 mm 1 m/S 758 mmHg 63%
    10:00 +25°C° 0 mm 1 m/S 758 mmHg 58%
    11:00 +27°C° 0 mm 1 m/S 758 mmHg 53%
    12:00 +28°C° 0 mm 1 m/S 758 mmHg 51%
    13:00 +28°C° 0 mm 1 m/S 757 mmHg 49%
    14:00 +29°C° 0 mm 1 m/S 757 mmHg 46%
    15:00 +28°C° 0 mm 2 m/S 757 mmHg 50%
    16:00 +27°C° 0 mm 2 m/S 757 mmHg 53%
    17:00 +27°C° 0 mm 2 m/S 756 mmHg 57%
    18:00 +25°C° 0 mm 2 m/S 757 mmHg 63%
    19:00 +23°C° 0 mm 2 m/S 757 mmHg 68%
    20:00 +21°C° 0 mm 1 m/S 757 mmHg 74%
    21:00 +20°C° 0 mm 1 m/S 757 mmHg 76%
    22:00 +20°C° 0 mm 1 m/S 757 mmHg 78%
    23:00 +19°C° 0 mm 1 m/S 757 mmHg 80%

    28 August, Mittwoch

    Zeit Temperatur Niederschläge Wind Luftdruck Luftfeuchtigkeit
    00:00 +19°C° 0 mm 1 m/S 757 mmHg 83%
    01:00 +18°C° 0 mm 1 m/S 757 mmHg 86%
    02:00 +18°C° 0 mm 1 m/S 757 mmHg 90%
    03:00 +18°C° 0 mm 1 m/S 757 mmHg 91%
    04:00 +16°C° 0 mm 1 m/S 757 mmHg 92%
    05:00 +16°C° 0 mm 1 m/S 757 mmHg 93%
    06:00 +19°C° 0 mm 1 m/S 757 mmHg 87%
    07:00 +20°C° 0 mm 1 m/S 757 mmHg 81%
    08:00 +22°C° 0 mm 1 m/S 757 mmHg 74%
    09:00 +23°C° 0 mm 2 m/S 757 mmHg 67%
    10:00 +25°C° 0 mm 2 m/S 757 mmHg 61%
    11:00 +26°C° 0 mm 2 m/S 757 mmHg 54%
    12:00 +27°C° 0 mm 2 m/S 757 mmHg 52%
    13:00 +27°C° 0 mm 3 m/S 757 mmHg 49%
    14:00 +27°C° 0 mm 3 m/S 757 mmHg 47%
    15:00 +27°C° 0 mm 3 m/S 756 mmHg 49%
    16:00 +26°C° 0 mm 3 m/S 756 mmHg 50%
    17:00 +26°C° 0 mm 3 m/S 756 mmHg 52%
    18:00 +22°C° 0 mm 3 m/S 756 mmHg 58%
    19:00 +20°C° 0 mm 3 m/S 756 mmHg 64%
    20:00 +18°C° 0 mm 2 m/S 756 mmHg 70%
    21:00 +17°C° 0 mm 3 m/S 756 mmHg 73%
    22:00 +17°C° 0 mm 3 m/S 757 mmHg 75%
    23:00 +16°C° 0 mm 3 m/S 757 mmHg 78%

    29 August, Donnerstag

    Zeit Temperatur Niederschläge Wind Luftdruck Luftfeuchtigkeit
    00:00 +14°C° 0 mm 3 m/S 757 mmHg 81%
    01:00 +15°C° 0 mm 2 m/S 757 mmHg 84%
    02:00 +14°C° 0 mm 2 m/S 757 mmHg 87%
    03:00 +14°C° 0 mm 2 m/S 757 mmHg 87%
    04:00 +13°C° 0 mm 2 m/S 757 mmHg 88%
    05:00 +12°C° 0 mm 2 m/S 757 mmHg 88%
    06:00 +13°C° 0 mm 3 m/S 757 mmHg 82%
    07:00 +14°C° 0 mm 3 m/S 757 mmHg 76%
    08:00 +16°C° 0 mm 3 m/S 757 mmHg 71%
    09:00 +18°C° 0 mm 3 m/S 757 mmHg 65%
    10:00 +20°C° 0 mm 4 m/S 757 mmHg 60%
    11:00 +21°C° 0 mm 4 m/S 757 mmHg 55%
    12:00 +22°C° 0 mm 4 m/S 757 mmHg 53%
    13:00 +23°C° 0 mm 4 m/S 757 mmHg 50%
    14:00 +23°C° 0 mm 4 m/S 756 mmHg 47%
    15:00 +23°C° 0 mm 4 m/S 756 mmHg 48%
    16:00 +22°C° 0 mm 3 m/S 756 mmHg 49%
    17:00 +22°C° 0 mm 3 m/S 756 mmHg 49%
    18:00 +20°C° 0 mm 3 m/S 756 mmHg 52%
    19:00 +18°C° 0 mm 3 m/S 756 mmHg 54%
    20:00 +16°C° 0 mm 3 m/S 756 mmHg 57%
    21:00 +14°C° 0 mm 3 m/S 756 mmHg 59%
    22:00 +13°C° 0 mm 3 m/S 756 mmHg 61%
    23:00 +12°C° 0 mm 3 m/S 756 mmHg 64%

    30 August, Freitag

    Zeit Temperatur Niederschläge Wind Luftdruck Luftfeuchtigkeit
    00:00 +12°C° 0 mm 3 m/S 756 mmHg 66%
    01:00 +11°C° 0 mm 3 m/S 756 mmHg 69%
    02:00 +11°C° 0 mm 3 m/S 756 mmHg 71%
    03:00 +10°C° 0 mm 3 m/S 756 mmHg 73%
    04:00 +10°C° 0 mm 3 m/S 756 mmHg 75%
    05:00 +10°C° 0 mm 3 m/S 756 mmHg 78%
    06:00 +11°C° 0 mm 3 m/S 756 mmHg 72%
    07:00 +13°C° 0 mm 3 m/S 756 mmHg 66%
    08:00 +16°C° 0 mm 3 m/S 756 mmHg 61%
    09:00 +18°C° 0 mm 3 m/S 756 mmHg 54%
    10:00 +20°C° 0 mm 3 m/S 756 mmHg 48%
    11:00 +22°C° 0 mm 4 m/S 757 mmHg 41%
    12:00 +24°C° 0 mm 3 m/S 756 mmHg 40%
    13:00 +24°C° 0 mm 3 m/S 756 mmHg 39%
    14:00 +25°C° 0 mm 3 m/S 756 mmHg 37%
    15:00 +25°C° 0 mm 3 m/S 756 mmHg 41%
    16:00 +24°C° 0 mm 3 m/S 755 mmHg 44%
    17:00 +24°C° 0 mm 2 m/S 755 mmHg 47%
    18:00 +21°C° 0 mm 2 m/S 755 mmHg 53%
    19:00 +19°C° 0 mm 2 m/S 755 mmHg 58%
    20:00 +16°C° 0 mm 2 m/S 755 mmHg 63%
    21:00 +16°C° 0 mm 2 m/S 755 mmHg 65%
    22:00 +15°C° 0 mm 2 m/S 755 mmHg 66%
    23:00 +14°C° 0 mm 2 m/S 755 mmHg 68%
    Mehr zeigen